Weather Roundup
Issued by NWS Chicago, IL

Home | Current Version | Previous Version | Graphics & Text | Print | Product List | Glossary On
Versions: 1 2 3 4 5 6 7 8 9 10 11 12 13 14 15 16 17 18 19 20 21 22 23 24 25 26 27 28 29 30 31 32 33 34 35 36 37 38 39 40 41 42 43 44 45 46 47 48 49 50
000
NZUS59 KLOT 031200
HRRLOT

CHICAGO AREA WEATHER ROUNDUP
NATIONAL WEATHER SERVICE CHICAGO/ROMEOVILLE IL
700 AM CDT FRI JUL 03 2015

NOTE: "FAIR" INDICATES FEW OR NO CLOUDS BELOW 12,000 FEET WITH NO
SIGNIFICANT WEATHER AND/OR OBSTRUCTIONS TO VISIBILITY.

* THESE STATIONS ARE NOT UNDER NWS QUALITY CONTROL. THEY ALSO MAY NOT
  REPORT WEATHER SUCH AS PRECIPITATION OR FOG.

ILZ005-006-012>014-019>023-031300-
NORTHEAST ILLINOIS

CITY           SKY/WX    TMP DP  RH WIND       PRES   REMARKS
OHARE          PTSUNNY   59  54  83 N3        29.98R
6HR MIN TEMP:  55; 6HR MAX TEMP:  59;

MIDWAY         PTSUNNY   64  58  80 N3        29.97R
6HR MIN TEMP:  61; 6HR MAX TEMP:  64;

AURORA         PTSUNNY   59  52  77 NE7       29.98R
6HR MIN TEMP:  55; 6HR MAX TEMP:  59;

WAUKEGAN       NOT AVBL
DUPAGE AIRPORT MOSUNNY   57  54  89 N5        29.97R
6HR MIN TEMP:  53; 6HR MAX TEMP:  57;

WHEELING       PTSUNNY   57  53  86 CALM      29.99S
6HR MIN TEMP:  54; 6HR MAX TEMP:  57;

NORTHERLY IS     N/A     62  56  80 NE5         N/A
$$

WIZ051-052-058>065-066-070>072-031300-
SOUTHEAST WISCONSIN

CITY           SKY/WX    TMP DP  RH WIND       PRES   REMARKS
MILWAUKEE      PTSUNNY   57  49  74 CALM      30.00S
6HR MIN TEMP:  52; 6HR MAX TEMP:  57;

KENOSHA*       CLOUDY    56  52  86 CALM      29.99S
RACINE*        PTSUNNY   57  52  83 CALM      30.01S
WAUKESHA       SUNNY     52  46  82 CALM      30.01S
$$

INZ001>003-010>013-019-020-031300-
NORTHWEST INDIANA

CITY           SKY/WX    TMP DP  RH WIND       PRES   REMARKS
GARY*          PTSUNNY   63  57  82 E5        29.98R
MICHIGAN CITY* NOT AVBL
RENSSELAER*    NOT AVBL
$$

LMZ740>746-031300-
SOUTHERN LAKE MICHIGAN

STATION/POSITION TIME  SKY/WX   TEMP WIND        PRES    VSBY
                                AIR  DIR/SP/G
                 (UTC)          (F)  (DEG/KT/KT) (MB)    (MI)
HARRISON CRIB    1100            61   80/  4/  5   N/A
BURNHAM HARBOR   1100            61   50/  3/  5   N/A
CALUMET HARBOR   1100            63   60/  4/  5   N/A
BURNS HARBOR     1100            62   90/  8/ 13 1014.9S
MICHIGAN CITY    1100            60   90/  8/ 13   N/A
$$

ABBREVIATIONS USED IN REMARKS
   TC - TEMPERATURE IN CELSIUS
  WCI - WIND CHILL INDEX
   HX - HEAT INDEX
  VSB - VISIBILITY
$$



USA.gov is the U.S. government's official web portal to all federal, state and local government web resources and services.